Flag for Botswana Weather past 2 weeks in Molepolole, Botswana

Now
77 °F

Passing clouds.


Feels Like: 79 °F
Forecast: 64 / 83 °F
Wind: 8 mph from East

Location: Seretse Khama International Airport

Current Time: Feb 28, 2015 at 10:56:10 PM

Latest Report: Feb 28, 2015 at 10:00 PM


Visibility: N/A

Pressure: 29.98 "Hg

Humidity: 47%

Dew point: 55 °F

Location of MolepololeLocation

Historic Weather in Molepolole — Graph

°F

Molepolole temperature yesterday

Maximum temperature yesterday: 90 °F (at 3:00 PM)
Minimum temperature yesterday: 66 °F (at 5:00 AM)
Average temperature yesterday: 79 °F

Past Weeks' High & Low Weather Summary

 TemperatureHumidityPressure
High99 °F (Feb 20, 2:00 PM)78% (Feb 25, 5:00 AM)30.27 "Hg (Feb 25, 5:00 AM)
Low59 °F (Feb 15, 6:00 AM)7% (Feb 14, 7:00 PM)29.77 "Hg (Feb 14, 5:00 PM)
Average81 °F37%30.00 "Hg
* Reported Feb 13 10:00 PM — Feb 28 10:00 PM, Molepolole, Weather by CustomWeather, © 2015

Note: Actual official high and low records may vary slightly from our data, if they occured in-between our weather recording intervals... More about our weather records

Advertising

Molepolole weather history for previous 24 hours

 ConditionsComfort  
Time TempWeatherWind HumidityBarometerVisibility
10:00 PM
Sat, Feb 28
77 °FPassing clouds.8 mph47%29.98 "HgN/A
9:00 PM77 °FPassing clouds.7 mph47%29.98 "HgN/A
8:00 PM79 °FPassing clouds.6 mph45%29.95 "HgN/A
7:00 PM82 °FPassing clouds.6 mph40%29.92 "HgN/A
6:00 PM84 °FPassing clouds.3 mph35%29.92 "HgN/A
5:00 PM86 °FPassing clouds.5 mph33%29.92 "HgN/A
4:00 PM84 °FScattered clouds.6 mph37%29.95 "HgN/A
3:00 PM84 °FScattered clouds.6 mph40%29.98 "HgN/A
2:00 PM82 °FScattered clouds.8 mph45%30.01 "HgN/A
1:00 PM81 °FScattered clouds.12 mph48%30.04 "HgN/A
12:00 PM79 °FScattered clouds.10 mph51%30.07 "HgN/A
11:00 AM77 °FScattered clouds.10 mph54%30.07 "HgN/A
10:00 AM73 °FPassing clouds.8 mph57%30.09 "HgN/A
9:00 AM73 °FPassing clouds.8 mph57%30.09 "HgN/A
8:00 AM72 °FSunny.2 mph57%30.09 "Hg10 mi
7:00 AM66 °FSunny.3 mph68%30.09 "Hg10 mi
6:00 AM63 °FSunny.2 mph73%30.09 "Hg10 mi
5:00 AM64 °FClear.3 mph68%30.07 "Hg10 mi
4:00 AM64 °FClear.6 mph73%30.04 "Hg10 mi
3:00 AM64 °FClear.9 mph73%30.04 "Hg10 mi
2:00 AM66 °FClear.5 mph68%30.04 "Hg10 mi
1:00 AM68 °FClear.7 mph64%30.04 "Hg10 mi
12:00 AM70 °FClear.6 mph60%30.04 "Hg10 mi
11:00 PM
Fri, Feb 27
72 °FClear.7 mph65%30.04 "Hg10 mi
10:00 PM75 °FClear.12 mph54%30.01 "Hg10 mi
Weather by CustomWeather, © 2015

See weather overviewHow to use our weather pages